Tracking 20945 objects as of 8-Jul-2020
HD Live streaming from Space Station
objects crossing your sky now

ATLAS 41E DEB

Track ATLAS 41E DEB now!
10-day predictions


NORAD ID: 15616
Int'l Code: 1985-021F
Perigee: 508.9 km
Apogee: 539.8 km
Inclination: 107.5 °
Period: 95.0 minutes
Semi major axis: 6895 km
RCS: 0.0514 m2 (small)
Launch date: March 13, 1985
Source: United States (US)
Launch site: AIR FORCE WESTERN TEST RANGE (AFWTR)

Note: This is SATELLITE DEBRIS
aabbcc
Your satellite tracking list
Your tracking list is empty




NASA's NSSDC Master Catalog

Two Line Element Set (TLE):
1 15616U 85021F   20190.52243286 +.00002077 +00000-0 +11930-3 0  9992
2 15616 107.4705 079.5424 0022430 228.5998 131.3260 15.16245852858512
Source of the keplerian elements: AFSPC